Time,TemperatureF,DewpointF,PressureIn,WindDirection,WindDirectionDegrees,WindSpeedMPH,WindSpeedGustMPH,Humidity,HourlyPrecipIn,Conditions,Clouds,dailyrainin,SoftwareType,DateUTC
2013-10-17 00:00:00,59.6,59.0,29.93,ENE,67,0.0,0.0,98,0.00,,,0.00,Wunderground v.1.15,2013-10-17 04:00:00,
2013-10-17 00:05:00,59.5,58.9,29.93,ENE,67,0.0,0.0,98,0.00,,,0.00,Wunderground v.1.15,2013-10-17 04:05:00,
2013-10-17 00:10:00,59.5,58.9,29.93,ENE,67,0.0,0.0,98,0.00,,,0.00,Wunderground v.1.15,2013-10-17 04:10:00,
2013-10-17 00:15:00,59.5,58.9,29.93,ENE,67,0.0,0.0,98,0.00,,,0.00,Wunderground v.1.15,2013-10-17 04:15:00,
2013-10-17 00:20:00,59.5,58.9,29.93,ENE,67,0.0,0.0,98,0.00,,,0.00,Wunderground v.1.15,2013-10-17 04:20:00,
2013-10-17 00:25:00,59.5,58.9,29.93,ENE,67,0.0,0.0,98,0.00,,,0.00,Wunderground v.1.15,2013-10-17 04:25:00,
2013-10-17 00:35:00,59.5,58.9,29.92,ENE,67,0.0,0.0,98,0.00,,,0.00,Wunderground v.1.15,2013-10-17 04:35:00,
2013-10-17 00:45:00,59.5,59.2,29.93,ENE,67,0.0,0.0,99,0.00,,,0.00,Wunderground v.1.15,2013-10-17 04:45:00,
2013-10-17 00:50:00,59.4,58.8,29.93,ENE,67,0.0,0.0,98,0.00,,,0.00,Wunderground v.1.15,2013-10-17 04:50:00,
2013-10-17 00:55:00,59.5,59.2,29.93,ENE,67,0.0,0.0,99,0.00,,,0.00,Wunderground v.1.15,2013-10-17 04:55:00,
2013-10-17 01:05:00,59.6,59.3,29.93,ENE,67,0.0,0.0,99,0.00,,,0.00,Wunderground v.1.15,2013-10-17 05:05:00,
2013-10-17 01:15:00,59.6,59.3,29.93,ENE,66,0.0,0.0,99,0.00,,,0.00,Wunderground v.1.15,2013-10-17 05:15:00,
2013-10-17 01:20:00,59.5,59.2,29.93,ENE,67,0.0,0.0,99,0.00,,,0.00,Wunderground v.1.15,2013-10-17 05:20:00,
2013-10-17 01:30:00,59.5,59.2,29.92,ENE,67,0.0,0.0,99,0.00,,,0.00,Wunderground v.1.15,2013-10-17 05:30:00,
2013-10-17 01:40:00,59.4,59.1,29.93,ENE,67,0.0,0.0,99,0.00,,,0.00,Wunderground v.1.15,2013-10-17 05:40:00,
2013-10-17 01:50:00,59.3,59.0,29.93,ENE,67,0.0,0.0,99,0.00,,,0.00,Wunderground v.1.15,2013-10-17 05:50:00,
2013-10-17 02:00:00,59.4,59.1,29.92,ENE,67,0.0,0.0,99,0.00,,,0.00,Wunderground v.1.15,2013-10-17 06:00:00,
2013-10-17 02:05:00,59.4,59.1,29.92,ENE,67,0.0,0.0,99,0.00,,,0.00,Wunderground v.1.15,2013-10-17 06:05:00,
2013-10-17 02:15:00,59.3,59.0,29.92,ENE,67,0.0,0.0,99,0.00,,,0.00,Wunderground v.1.15,2013-10-17 06:15:00,
2013-10-17 02:25:00,59.4,59.1,29.92,ENE,67,0.0,0.0,99,0.00,,,0.00,Wunderground v.1.15,2013-10-17 06:25:00,
2013-10-17 02:30:00,59.4,59.1,29.92,ENE,67,0.0,0.0,99,0.00,,,0.00,Wunderground v.1.15,2013-10-17 06:30:00,
2013-10-17 02:40:00,59.5,59.2,29.91,ENE,67,0.0,0.0,99,0.00,,,0.00,Wunderground v.1.15,2013-10-17 06:40:00,
2013-10-17 02:50:00,59.4,59.1,29.91,ENE,67,0.0,0.0,99,0.00,,,0.00,Wunderground v.1.15,2013-10-17 06:50:00,
2013-10-17 03:00:00,59.4,59.1,29.90,ENE,67,0.0,0.0,99,0.00,,,0.00,Wunderground v.1.15,2013-10-17 07:00:00,
2013-10-17 03:05:00,59.4,59.1,29.90,ENE,67,0.0,0.0,99,0.00,,,0.00,Wunderground v.1.15,2013-10-17 07:05:00,
2013-10-17 03:15:00,59.3,59.0,29.90,ENE,67,0.0,0.0,99,0.00,,,0.00,Wunderground v.1.15,2013-10-17 07:15:00,
2013-10-17 03:25:00,59.4,59.1,29.90,ENE,67,0.0,0.0,99,0.00,,,0.00,Wunderground v.1.15,2013-10-17 07:25:00,
2013-10-17 03:35:00,59.3,59.0,29.90,ENE,67,0.0,0.0,99,0.00,,,0.00,Wunderground v.1.15,2013-10-17 07:35:00,
2013-10-17 03:45:00,59.2,58.9,29.89,ENE,67,0.0,0.0,99,0.00,,,0.00,Wunderground v.1.15,2013-10-17 07:45:00,
2013-10-17 03:50:00,59.1,58.8,29.90,ENE,66,0.0,0.0,99,0.00,,,0.00,Wunderground v.1.15,2013-10-17 07:50:00,
2013-10-17 04:00:00,59.0,58.7,29.89,ENE,67,0.0,0.0,99,0.00,,,0.00,Wunderground v.1.15,2013-10-17 08:00:00,
2013-10-17 04:10:00,58.7,58.4,29.90,ENE,67,0.0,0.0,99,0.00,,,0.00,Wunderground v.1.15,2013-10-17 08:10:00,
2013-10-17 04:15:00,58.6,58.3,29.89,ENE,67,0.0,0.0,99,0.00,,,0.00,Wunderground v.1.15,2013-10-17 08:15:00,
2013-10-17 04:20:00,58.5,58.2,29.89,ENE,67,0.0,0.0,99,0.00,,,0.00,Wunderground v.1.15,2013-10-17 08:20:00,
2013-10-17 04:25:00,58.4,58.1,29.89,ENE,67,0.0,0.0,99,0.00,,,0.00,Wunderground v.1.15,2013-10-17 08:25:00,
2013-10-17 04:35:00,58.2,57.9,29.89,ENE,67,0.0,0.0,99,0.00,,,0.00,Wunderground v.1.15,2013-10-17 08:35:00,
2013-10-17 04:45:00,58.1,57.8,29.89,ENE,67,0.0,0.0,99,0.00,,,0.00,Wunderground v.1.15,2013-10-17 08:45:00,
2013-10-17 04:50:00,58.0,57.7,29.89,ENE,67,0.0,0.0,99,0.00,,,0.00,Wunderground v.1.15,2013-10-17 08:50:00,
2013-10-17 05:00:00,58.0,57.7,29.89,ENE,67,0.0,0.0,99,0.00,,,0.00,Wunderground v.1.15,2013-10-17 09:00:00,
2013-10-17 05:10:00,58.0,57.7,29.89,ENE,67,0.0,0.0,99,0.00,,,0.00,Wunderground v.1.15,2013-10-17 09:10:00,
2013-10-17 05:15:00,58.0,57.7,29.89,ENE,67,0.0,0.0,99,0.00,,,0.00,Wunderground v.1.15,2013-10-17 09:15:00,
2013-10-17 05:25:00,58.1,57.8,29.89,ENE,67,0.0,0.0,99,0.00,,,0.00,Wunderground v.1.15,2013-10-17 09:25:00,
2013-10-17 05:35:00,58.0,57.7,29.90,ENE,67,0.0,0.0,99,0.00,,,0.00,Wunderground v.1.15,2013-10-17 09:35:00,
2013-10-17 05:45:00,57.8,57.5,29.90,ENE,67,0.0,0.0,99,0.00,,,0.00,Wunderground v.1.15,2013-10-17 09:45:00,
2013-10-17 05:50:00,57.8,57.5,29.90,ENE,67,0.0,0.0,99,0.00,,,0.00,Wunderground v.1.15,2013-10-17 09:50:00,
2013-10-17 06:00:00,57.7,57.4,29.90,ENE,67,0.0,0.0,99,0.00,,,0.00,Wunderground v.1.15,2013-10-17 10:00:00,
2013-10-17 06:10:00,57.6,57.3,29.90,ENE,67,0.0,0.0,99,0.00,,,0.00,Wunderground v.1.15,2013-10-17 10:10:00,
2013-10-17 06:20:00,57.7,57.4,29.90,ENE,67,0.0,0.0,99,0.00,,,0.00,Wunderground v.1.15,2013-10-17 10:20:00,
2013-10-17 06:30:00,57.8,57.5,29.90,ENE,67,0.0,0.0,99,0.00,,,0.00,Wunderground v.1.15,2013-10-17 10:30:00,
2013-10-17 06:35:00,57.9,57.6,29.91,ENE,67,0.0,0.0,99,0.00,,,0.00,Wunderground v.1.15,2013-10-17 10:35:00,
2013-10-17 06:45:00,58.0,57.7,29.90,ENE,66,0.0,0.0,99,0.00,,,0.00,Wunderground v.1.15,2013-10-17 10:45:00,
2013-10-17 06:55:00,58.0,57.7,29.91,ENE,67,0.0,0.0,99,0.00,,,0.00,Wunderground v.1.15,2013-10-17 10:55:00,
2013-10-17 07:00:00,58.1,57.8,29.90,ENE,67,0.0,0.0,99,0.00,,,0.00,Wunderground v.1.15,2013-10-17 11:00:00,
2013-10-17 07:10:00,58.1,57.8,29.90,ENE,67,0.0,0.0,99,0.00,,,0.00,Wunderground v.1.15,2013-10-17 11:10:00,
2013-10-17 07:20:00,58.2,58.2,29.90,ENE,67,0.0,0.0,100,0.00,,,0.00,Wunderground v.1.15,2013-10-17 11:20:00,
2013-10-17 07:25:00,58.3,58.3,29.90,ENE,67,0.0,0.0,100,0.00,,,0.00,Wunderground v.1.15,2013-10-17 11:25:00,
2013-10-17 07:35:00,58.4,58.4,29.90,ENE,67,0.0,0.0,100,0.00,,,0.00,Wunderground v.1.15,2013-10-17 11:35:00,
2013-10-17 07:45:00,58.5,58.5,29.90,ENE,67,0.0,0.0,100,0.00,,,0.00,Wunderground v.1.15,2013-10-17 11:45:00,
2013-10-17 07:50:00,58.5,58.5,29.90,ENE,67,0.0,0.0,100,0.00,,,0.00,Wunderground v.1.15,2013-10-17 11:50:00,
2013-10-17 08:00:00,58.6,58.6,29.90,ENE,67,0.0,0.0,100,0.00,,,0.00,Wunderground v.1.15,2013-10-17 12:00:00,
2013-10-17 08:10:00,58.8,58.8,29.90,ENE,67,0.0,0.0,100,0.00,,,0.00,Wunderground v.1.15,2013-10-17 12:10:00,
2013-10-17 08:20:00,59.0,59.0,29.91,ENE,67,0.0,0.0,100,0.00,,,0.00,Wunderground v.1.15,2013-10-17 12:20:00,
2013-10-17 08:30:00,59.4,59.4,29.91,ENE,67,0.0,0.0,100,0.00,,,0.00,Wunderground v.1.15,2013-10-17 12:30:00,
2013-10-17 08:35:00,59.6,59.6,29.91,ENE,67,0.0,0.0,100,0.00,,,0.00,Wunderground v.1.15,2013-10-17 12:35:00,
2013-10-17 08:45:00,60.0,60.0,29.91,ENE,67,0.0,0.0,100,0.00,,,0.00,Wunderground v.1.15,2013-10-17 12:45:00,
2013-10-17 08:55:00,60.3,60.3,29.91,ENE,67,0.0,0.0,100,0.00,,,0.00,Wunderground v.1.15,2013-10-17 12:55:00,
2013-10-17 09:05:00,60.6,60.6,29.92,ENE,67,0.0,0.0,100,0.00,,,0.00,Wunderground v.1.15,2013-10-17 13:05:00,
2013-10-17 09:10:00,60.8,60.8,29.92,ENE,67,0.0,0.0,100,0.00,,,0.00,Wunderground v.1.15,2013-10-17 13:10:00,
2013-10-17 09:20:00,61.0,61.0,29.92,ENE,67,0.0,0.0,100,0.00,,,0.00,Wunderground v.1.15,2013-10-17 13:20:00,
2013-10-17 09:30:00,61.5,61.5,29.91,ENE,67,0.0,0.0,100,0.00,,,0.00,Wunderground v.1.15,2013-10-17 13:30:00,
2013-10-17 09:35:00,62.1,62.1,29.91,East,92,0.0,0.0,100,0.00,,,0.00,Wunderground v.1.15,2013-10-17 13:35:00,
2013-10-17 09:45:00,62.7,62.7,29.91,East,92,0.0,0.0,100,0.00,,,0.00,Wunderground v.1.15,2013-10-17 13:45:00,
2013-10-17 09:55:00,63.5,63.5,29.92,ESE,119,0.0,0.0,100,0.00,,,0.00,Wunderground v.1.15,2013-10-17 13:55:00,
2013-10-17 10:05:00,64.1,64.1,29.92,ESE,119,0.0,0.0,100,0.00,,,0.00,Wunderground v.1.15,2013-10-17 14:05:00,
2013-10-17 10:10:00,64.4,64.4,29.92,ESE,119,0.0,0.0,100,0.00,,,0.00,Wunderground v.1.15,2013-10-17 14:10:00,
2013-10-17 10:20:00,65.0,65.0,29.92,ESE,119,0.0,0.0,100,0.00,,,0.00,Wunderground v.1.15,2013-10-17 14:20:00,
2013-10-17 10:30:00,65.6,65.6,29.92,ESE,117,0.0,0.0,100,0.00,,,0.00,Wunderground v.1.15,2013-10-17 14:30:00,
2013-10-17 10:35:00,65.9,65.6,29.92,ESE,109,0.0,0.0,99,0.00,,,0.00,Wunderground v.1.15,2013-10-17 14:35:00,
2013-10-17 10:45:00,66.4,65.5,29.92,ENE,59,0.0,0.0,97,0.00,,,0.00,Wunderground v.1.15,2013-10-17 14:45:00,
2013-10-17 10:55:00,66.9,65.7,29.92,ENE,59,0.0,1.0,96,0.00,,,0.00,Wunderground v.1.15,2013-10-17 14:55:00,
2013-10-17 11:05:00,67.2,65.4,29.91,ENE,59,0.0,0.0,94,0.00,,,0.00,Wunderground v.1.15,2013-10-17 15:05:00,
2013-10-17 11:15:00,67.6,65.8,29.91,ENE,59,0.0,0.0,94,0.00,,,0.00,Wunderground v.1.15,2013-10-17 15:15:00,
2013-10-17 11:20:00,67.8,66.0,29.91,ENE,59,0.0,0.0,94,0.00,,,0.00,Wunderground v.1.15,2013-10-17 15:20:00,
2013-10-17 11:30:00,68.0,66.2,29.91,ENE,59,0.0,0.0,94,0.00,,,0.00,Wunderground v.1.15,2013-10-17 15:30:00,
2013-10-17 11:40:00,69.0,66.6,29.90,North,11,0.0,1.0,92,0.00,,,0.00,Wunderground v.1.15,2013-10-17 15:40:00,
2013-10-17 11:50:00,70.7,67.6,29.89,North,5,0.0,0.0,90,0.00,,,0.00,Wunderground v.1.15,2013-10-17 15:50:00,
2013-10-17 12:00:00,71.3,66.6,29.89,ENE,72,1.0,1.0,85,0.00,,,0.00,Wunderground v.1.15,2013-10-17 16:00:00,
2013-10-17 12:05:00,71.7,66.3,29.89,NE,53,1.0,1.0,83,0.00,,,0.00,Wunderground v.1.15,2013-10-17 16:05:00,
2013-10-17 12:15:00,72.5,66.7,29.89,East,97,1.0,1.0,82,0.00,,,0.00,Wunderground v.1.15,2013-10-17 16:15:00,
2013-10-17 12:25:00,73.1,66.6,29.89,NE,52,1.0,1.0,80,0.00,,,0.00,Wunderground v.1.15,2013-10-17 16:25:00,
2013-10-17 12:35:00,73.1,65.5,29.88,ESE,110,1.0,2.0,77,0.00,,,0.00,Wunderground v.1.15,2013-10-17 16:35:00,
2013-10-17 12:40:00,73.2,65.9,29.88,East,86,1.0,1.0,78,0.00,,,0.00,Wunderground v.1.15,2013-10-17 16:40:00,
2013-10-17 12:50:00,74.6,66.5,29.88,NW,319,1.0,1.0,76,0.00,,,0.00,Wunderground v.1.15,2013-10-17 16:50:00,
2013-10-17 13:00:00,75.9,67.4,29.88,South,189,1.0,1.0,75,0.00,,,0.00,Wunderground v.1.15,2013-10-17 17:00:00,
2013-10-17 13:10:00,74.8,65.6,29.87,East,91,1.0,1.0,73,0.00,,,0.00,Wunderground v.1.15,2013-10-17 17:10:00,
2013-10-17 13:20:00,73.9,65.5,29.86,ESE,116,1.0,1.0,75,0.00,,,0.00,Wunderground v.1.15,2013-10-17 17:20:00,
2013-10-17 13:25:00,73.5,65.8,29.86,South,180,0.0,1.0,77,0.00,,,0.00,Wunderground v.1.15,2013-10-17 17:25:00,
2013-10-17 13:35:00,73.3,66.0,29.86,ESE,108,0.0,0.0,78,0.00,,,0.00,Wunderground v.1.15,2013-10-17 17:35:00,
2013-10-17 13:45:00,73.5,65.8,29.85,East,86,1.0,2.0,77,0.00,,,0.00,Wunderground v.1.15,2013-10-17 17:45:00,
2013-10-17 13:55:00,73.1,66.2,29.85,East,87,1.0,1.0,79,0.00,,,0.00,Wunderground v.1.15,2013-10-17 17:55:00,
2013-10-17 14:05:00,73.0,65.7,29.85,East,84,1.0,1.0,78,0.00,,,0.00,Wunderground v.1.15,2013-10-17 18:05:00,
2013-10-17 14:10:00,72.7,66.2,29.85,East,84,1.0,1.0,80,0.00,,,0.00,Wunderground v.1.15,2013-10-17 18:10:00,
2013-10-17 14:20:00,72.5,66.3,29.84,ENE,73,0.0,0.0,81,0.00,,,0.00,Wunderground v.1.15,2013-10-17 18:20:00,
2013-10-17 14:30:00,72.4,67.3,29.84,ENE,73,0.0,0.0,84,0.00,,,0.00,Wunderground v.1.15,2013-10-17 18:30:00,
2013-10-17 14:40:00,72.3,66.8,29.84,ENE,73,0.0,0.0,83,0.00,,,0.00,Wunderground v.1.15,2013-10-17 18:40:00,
2013-10-17 14:45:00,72.4,66.6,29.84,East,83,0.0,0.0,82,0.00,,,0.00,Wunderground v.1.15,2013-10-17 18:45:00,
2013-10-17 14:55:00,72.6,66.8,29.84,East,93,0.0,1.0,82,0.00,,,0.00,Wunderground v.1.15,2013-10-17 18:55:00,
2013-10-17 15:05:00,72.9,66.0,29.83,East,89,1.0,1.0,79,0.00,,,0.00,Wunderground v.1.15,2013-10-17 19:05:00,
2013-10-17 15:15:00,72.8,66.3,29.83,East,89,0.0,0.0,80,0.00,,,0.00,Wunderground v.1.15,2013-10-17 19:15:00,
2013-10-17 15:20:00,72.9,67.4,29.83,East,89,0.0,0.0,83,0.00,,,0.00,Wunderground v.1.15,2013-10-17 19:20:00,
2013-10-17 15:30:00,72.8,67.7,29.83,East,89,0.0,0.0,84,0.00,,,0.00,Wunderground v.1.15,2013-10-17 19:30:00,
2013-10-17 15:40:00,73.0,66.1,29.82,ESE,103,1.0,1.0,79,0.00,,,0.00,Wunderground v.1.15,2013-10-17 19:40:00,
2013-10-17 15:45:00,73.1,66.6,29.82,ESE,103,0.0,1.0,80,0.00,,,0.00,Wunderground v.1.15,2013-10-17 19:45:00,
2013-10-17 15:55:00,72.7,66.9,29.83,ESE,103,0.0,1.0,82,0.00,,,0.00,Wunderground v.1.15,2013-10-17 19:55:00,
2013-10-17 16:00:00,72.5,66.7,29.82,ESE,103,0.0,0.0,82,0.00,,,0.00,Wunderground v.1.15,2013-10-17 20:00:00,
2013-10-17 16:05:00,72.5,67.0,29.82,ESE,103,0.0,0.0,83,0.00,,,0.00,Wunderground v.1.15,2013-10-17 20:05:00,
2013-10-17 16:15:00,72.3,67.5,29.83,ESE,103,0.0,0.0,85,0.00,,,0.00,Wunderground v.1.15,2013-10-17 20:15:00,
2013-10-17 16:25:00,72.0,67.2,29.82,ESE,103,0.0,0.0,85,0.00,,,0.00,Wunderground v.1.15,2013-10-17 20:25:00,
2013-10-17 16:30:00,71.6,67.5,29.82,ESE,103,0.0,0.0,87,0.00,,,0.00,Wunderground v.1.15,2013-10-17 20:30:00,
2013-10-17 16:40:00,71.2,67.5,29.82,ESE,103,0.0,0.0,88,0.00,,,0.00,Wunderground v.1.15,2013-10-17 20:40:00,
2013-10-17 16:50:00,71.0,67.6,29.82,ESE,103,0.0,0.0,89,0.00,,,0.00,Wunderground v.1.15,2013-10-17 20:50:00,
2013-10-17 17:00:00,70.8,67.4,29.82,ESE,103,0.0,0.0,89,0.00,,,0.00,Wunderground v.1.15,2013-10-17 21:00:00,
2013-10-17 17:05:00,70.6,67.5,29.82,ESE,103,0.0,0.0,90,0.00,,,0.00,Wunderground v.1.15,2013-10-17 21:05:00,
2013-10-17 17:15:00,70.3,67.5,29.81,ESE,103,0.0,0.0,91,0.00,,,0.00,Wunderground v.1.15,2013-10-17 21:15:00,
2013-10-17 17:25:00,70.1,67.3,29.81,ESE,103,0.0,0.0,91,0.00,,,0.00,Wunderground v.1.15,2013-10-17 21:25:00,
2013-10-17 17:35:00,70.1,67.3,29.81,ESE,103,0.0,0.0,91,0.00,,,0.00,Wunderground v.1.15,2013-10-17 21:35:00,
2013-10-17 17:40:00,70.1,67.3,29.81,ESE,103,0.0,0.0,91,0.00,,,0.00,Wunderground v.1.15,2013-10-17 21:40:00,
2013-10-17 17:50:00,69.9,67.5,29.80,ESE,103,0.0,0.0,92,0.00,,,0.00,Wunderground v.1.15,2013-10-17 21:50:00,
2013-10-17 18:00:00,69.9,67.8,29.81,ESE,103,0.0,0.0,93,0.00,,,0.00,Wunderground v.1.15,2013-10-17 22:00:00,
2013-10-17 18:10:00,69.6,67.5,29.80,ESE,103,0.0,0.0,93,0.00,,,0.00,Wunderground v.1.15,2013-10-17 22:10:00,
2013-10-17 18:15:00,69.5,67.4,29.81,ESE,103,0.0,0.0,93,0.00,,,0.00,Wunderground v.1.15,2013-10-17 22:15:00,
2013-10-17 18:25:00,69.2,67.1,29.81,ESE,103,0.0,0.0,93,0.00,,,0.00,Wunderground v.1.15,2013-10-17 22:25:00,
2013-10-17 18:35:00,69.1,67.0,29.81,ESE,103,0.0,0.0,93,0.00,,,0.00,Wunderground v.1.15,2013-10-17 22:35:00,
2013-10-17 18:45:00,68.9,67.1,29.80,ESE,103,0.0,0.0,94,0.00,,,0.00,Wunderground v.1.15,2013-10-17 22:45:00,
2013-10-17 18:55:00,68.7,66.9,29.80,ESE,103,0.0,0.0,94,0.00,,,0.00,Wunderground v.1.15,2013-10-17 22:55:00,
2013-10-17 19:05:00,68.4,66.6,29.81,ESE,103,0.0,0.0,94,0.00,,,0.00,Wunderground v.1.15,2013-10-17 23:05:00,
2013-10-17 19:15:00,68.3,66.8,29.81,ESE,103,0.0,0.0,95,0.00,,,0.00,Wunderground v.1.15,2013-10-17 23:15:00,
2013-10-17 19:20:00,68.2,66.7,29.81,ESE,103,0.0,0.0,95,0.00,,,0.00,Wunderground v.1.15,2013-10-17 23:20:00,
2013-10-17 19:30:00,68.0,66.5,29.81,ESE,103,0.0,0.0,95,0.00,,,0.00,Wunderground v.1.15,2013-10-17 23:30:00,
2013-10-17 19:40:00,67.8,66.6,29.81,ESE,103,0.0,0.0,96,0.00,,,0.00,Wunderground v.1.15,2013-10-17 23:40:00,
2013-10-17 19:50:00,67.6,66.4,29.80,ESE,103,0.0,0.0,96,0.00,,,0.00,Wunderground v.1.15,2013-10-17 23:50:00,
2013-10-17 20:00:00,67.5,66.3,29.81,ESE,103,0.0,0.0,96,0.00,,,0.00,Wunderground v.1.15,2013-10-18 00:00:00,
2013-10-17 20:05:00,67.4,66.2,29.80,ESE,103,0.0,0.0,96,0.00,,,0.00,Wunderground v.1.15,2013-10-18 00:05:00,
2013-10-17 20:15:00,67.3,66.4,29.81,ESE,103,0.0,0.0,97,0.00,,,0.00,Wunderground v.1.15,2013-10-18 00:15:00,
2013-10-17 20:25:00,67.2,66.3,29.81,ESE,103,0.0,0.0,97,0.00,,,0.00,Wunderground v.1.15,2013-10-18 00:25:00,
2013-10-17 20:35:00,67.0,66.1,29.82,ESE,103,0.0,0.0,97,0.00,,,0.00,Wunderground v.1.15,2013-10-18 00:35:00,
2013-10-17 20:45:00,67.0,66.1,29.82,ESE,103,0.0,0.0,97,0.00,,,0.00,Wunderground v.1.15,2013-10-18 00:45:00,
2013-10-17 20:55:00,67.0,66.1,29.82,ESE,103,0.0,0.0,97,0.00,,,0.00,Wunderground v.1.15,2013-10-18 00:55:00,
2013-10-17 21:00:00,67.0,66.1,29.82,ESE,103,0.0,0.0,97,0.00,,,0.00,Wunderground v.1.15,2013-10-18 01:00:00,
2013-10-17 21:10:00,67.0,66.1,29.82,SE,132,0.0,0.0,97,0.00,,,0.00,Wunderground v.1.15,2013-10-18 01:10:00,
2013-10-17 21:20:00,67.0,66.1,29.83,ENE,76,0.0,0.0,97,0.00,,,0.00,Wunderground v.1.15,2013-10-18 01:20:00,
2013-10-17 21:30:00,67.2,66.3,29.83,ENE,74,0.0,0.0,97,0.00,,,0.00,Wunderground v.1.15,2013-10-18 01:30:00,
2013-10-17 21:40:00,67.3,66.4,29.83,ENE,74,0.0,2.0,97,0.00,,,0.00,Wunderground v.1.15,2013-10-18 01:40:00,
2013-10-17 21:50:00,67.4,66.2,29.83,ESE,117,1.0,1.0,96,0.00,,,0.00,Wunderground v.1.15,2013-10-18 01:50:00,
2013-10-17 22:00:00,67.6,66.1,29.83,ESE,117,0.0,0.0,95,0.00,,,0.00,Wunderground v.1.15,2013-10-18 02:00:00,
2013-10-17 22:10:00,67.6,66.4,29.83,ESE,103,0.0,0.0,96,0.00,,,0.00,Wunderground v.1.15,2013-10-18 02:10:00,
2013-10-17 22:20:00,67.5,66.3,29.84,ESE,103,0.0,0.0,96,0.00,,,0.00,Wunderground v.1.15,2013-10-18 02:20:00,
2013-10-17 22:25:00,67.5,66.3,29.84,ESE,103,0.0,0.0,96,0.00,,,0.00,Wunderground v.1.15,2013-10-18 02:25:00,
2013-10-17 22:35:00,67.6,66.1,29.84,NE,55,0.0,0.0,95,0.00,,,0.00,Wunderground v.1.15,2013-10-18 02:35:00,
2013-10-17 22:45:00,67.8,66.3,29.84,ENE,67,0.0,1.0,95,0.00,,,0.00,Wunderground v.1.15,2013-10-18 02:45:00,
2013-10-17 22:55:00,68.0,66.2,29.84,SE,132,1.0,2.0,94,0.00,,,0.00,Wunderground v.1.15,2013-10-18 02:55:00,
2013-10-17 23:00:00,68.1,66.3,29.84,ESE,107,1.0,1.0,94,0.00,,,0.00,Wunderground v.1.15,2013-10-18 03:00:00,
2013-10-17 23:05:00,68.2,66.4,29.84,East,100,0.0,1.0,94,0.00,,,0.00,Wunderground v.1.15,2013-10-18 03:05:00,
2013-10-17 23:15:00,68.5,66.4,29.84,East,91,1.0,1.0,93,0.00,,,0.00,Wunderground v.1.15,2013-10-18 03:15:00,
2013-10-17 23:25:00,68.4,66.3,29.84,East,93,0.0,0.0,93,0.00,,,0.00,Wunderground v.1.15,2013-10-18 03:25:00,
2013-10-17 23:30:00,68.3,66.5,29.84,East,93,0.0,0.0,94,0.00,,,0.00,Wunderground v.1.15,2013-10-18 03:30:00,
2013-10-17 23:40:00,68.2,66.4,29.84,SE,131,0.0,0.0,94,0.00,,,0.00,Wunderground v.1.15,2013-10-18 03:40:00,
2013-10-17 23:50:00,67.9,66.1,29.84,SE,131,0.0,0.0,94,0.00,,,0.00,Wunderground v.1.15,2013-10-18 03:50:00,